Time,TemperatureF,DewpointF,PressureIn,WindDirection,WindDirectionDegrees,WindSpeedMPH,WindSpeedGustMPH,Humidity,HourlyPrecipIn,Conditions,Clouds,dailyrainin,SoftwareType,DateUTC
2013-03-02 00:02:00,17.0,7.0,30.14,NNW,345,4.0,9.0,66,-99.99,,,-99.99,,2013-03-02 05:02:00,
2013-03-02 00:12:00,17.0,7.0,30.14,NNW,345,4.0,9.0,66,-99.99,,,-99.99,,2013-03-02 05:12:00,
2013-03-02 00:22:00,16.0,7.0,30.14,North,0,3.0,7.0,66,-99.99,,,-99.99,,2013-03-02 05:22:00,
2013-03-02 00:32:00,16.0,6.0,30.15,NNW,335,1.0,5.0,66,-99.99,,,-99.99,,2013-03-02 05:32:00,
2013-03-02 00:42:00,16.0,6.0,30.15,NNW,335,1.0,5.0,66,-99.99,,,-99.99,,2013-03-02 05:42:00,
2013-03-02 00:52:00,15.0,6.0,30.15,North,0,3.0,7.0,66,-99.99,,,-99.99,,2013-03-02 05:52:00,
2013-03-02 01:02:00,15.0,6.0,30.14,North,5,5.0,11.0,67,-99.99,,,-99.99,,2013-03-02 06:02:00,
2013-03-02 01:11:00,15.0,6.0,30.14,North,5,5.0,11.0,67,-99.99,,,-99.99,,2013-03-02 06:11:00,
2013-03-02 01:22:00,14.0,5.0,30.14,North,0,5.0,11.0,67,-99.99,,,-99.99,,2013-03-02 06:22:00,
2013-03-02 01:32:00,14.0,5.0,30.14,North,10,5.0,10.0,68,-99.99,,,-99.99,,2013-03-02 06:32:00,
2013-03-02 01:42:00,14.0,5.0,30.14,North,10,5.0,10.0,68,-99.99,,,-99.99,,2013-03-02 06:42:00,
2013-03-02 01:52:00,14.0,5.0,30.14,North,10,7.0,14.0,67,-99.99,,,-99.99,,2013-03-02 06:52:00,
2013-03-02 02:02:00,14.0,5.0,30.14,North,10,5.0,12.0,67,-99.99,,,-99.99,,2013-03-02 07:02:00,
2013-03-02 02:11:00,14.0,5.0,30.14,North,10,5.0,12.0,67,-99.99,,,-99.99,,2013-03-02 07:11:00,
2013-03-02 02:22:00,13.0,5.0,30.15,NNE,20,4.0,10.0,68,-99.99,,,-99.99,,2013-03-02 07:22:00,
2013-03-02 02:32:00,13.0,5.0,30.15,North,5,4.0,14.0,69,-99.99,,,-99.99,,2013-03-02 07:32:00,
2013-03-02 02:42:00,13.0,5.0,30.15,North,5,4.0,14.0,69,-99.99,,,-99.99,,2013-03-02 07:42:00,
2013-03-02 02:51:00,12.0,4.0,30.15,North,10,4.0,9.0,71,-99.99,,,-99.99,,2013-03-02 07:51:00,
2013-03-02 03:01:00,12.0,4.0,30.15,North,10,4.0,9.0,71,-99.99,,,-99.99,,2013-03-02 08:01:00,
2013-03-02 03:11:00,12.0,4.0,30.15,North,10,4.0,9.0,71,-99.99,,,-99.99,,2013-03-02 08:11:00,
2013-03-02 03:22:00,12.0,4.0,30.15,North,0,6.0,11.0,72,-99.99,,,-99.99,,2013-03-02 08:22:00,
2013-03-02 03:32:00,11.0,5.0,30.14,NNE,15,4.0,8.0,73,-99.99,,,-99.99,,2013-03-02 08:32:00,
2013-03-02 03:42:00,11.0,5.0,30.14,NNE,15,4.0,8.0,73,-99.99,,,-99.99,,2013-03-02 08:42:00,
2013-03-02 03:52:00,11.0,4.0,30.15,North,0,4.0,6.0,73,-99.99,,,-99.99,,2013-03-02 08:52:00,
2013-03-02 04:02:00,11.0,4.0,30.15,North,0,4.0,6.0,73,-99.99,,,-99.99,,2013-03-02 09:02:00,
2013-03-02 04:11:00,11.0,4.0,30.15,North,0,4.0,6.0,73,-99.99,,,-99.99,,2013-03-02 09:11:00,
2013-03-02 04:22:00,10.0,4.0,30.14,North,0,5.0,9.0,74,-99.99,,,-99.99,,2013-03-02 09:22:00,
2013-03-02 04:32:00,10.0,4.0,30.14,North,0,6.0,10.0,75,-99.99,,,-99.99,,2013-03-02 09:32:00,
2013-03-02 04:42:00,10.0,4.0,30.14,North,0,6.0,10.0,75,-99.99,,,-99.99,,2013-03-02 09:42:00,
2013-03-02 04:52:00,10.0,4.0,30.13,North,5,7.0,14.0,76,-99.99,,,-99.99,,2013-03-02 09:52:00,
2013-03-02 05:01:00,10.0,4.0,30.13,North,5,7.0,14.0,76,-99.99,,,-99.99,,2013-03-02 10:01:00,
2013-03-02 05:16:00,10.0,4.0,30.13,North,5,7.0,14.0,76,-99.99,,,-99.99,,2013-03-02 10:16:00,
2013-03-02 05:22:00,10.0,4.0,30.13,North,355,8.0,15.0,77,-99.99,,,-99.99,,2013-03-02 10:22:00,
2013-03-02 05:32:00,9.0,4.0,30.14,North,5,6.0,14.0,77,-99.99,,,-99.99,,2013-03-02 10:32:00,
2013-03-02 05:43:00,9.0,4.0,30.14,North,5,6.0,14.0,77,-99.99,,,-99.99,,2013-03-02 10:43:00,
2013-03-02 05:52:00,9.0,3.0,30.13,North,0,8.0,12.0,77,-99.99,,,-99.99,,2013-03-02 10:52:00,
2013-03-02 06:01:00,9.0,3.0,30.13,North,0,6.0,16.0,77,-99.99,,,-99.99,,2013-03-02 11:01:00,
2013-03-02 06:11:00,9.0,3.0,30.13,North,0,6.0,16.0,77,-99.99,,,-99.99,,2013-03-02 11:11:00,
2013-03-02 06:22:00,9.0,4.0,30.14,NNE,15,7.0,16.0,78,-99.99,,,-99.99,,2013-03-02 11:22:00,
2013-03-02 06:32:00,9.0,3.0,30.14,North,0,8.0,16.0,78,-99.99,,,-99.99,,2013-03-02 11:32:00,
2013-03-02 06:42:00,9.0,3.0,30.14,North,0,8.0,16.0,78,-99.99,,,-99.99,,2013-03-02 11:42:00,
2013-03-02 06:52:00,8.0,3.0,30.14,North,0,6.0,14.0,79,-99.99,,,-99.99,,2013-03-02 11:52:00,
2013-03-02 07:02:00,8.0,3.0,30.14,North,0,6.0,14.0,79,-99.99,,,-99.99,,2013-03-02 12:02:00,
2013-03-02 07:11:00,8.0,3.0,30.14,North,0,6.0,14.0,79,-99.99,,,-99.99,,2013-03-02 12:11:00,
2013-03-02 07:22:00,8.0,3.0,30.14,NNW,345,6.0,15.0,79,-99.99,,,-99.99,,2013-03-02 12:22:00,
2013-03-02 07:33:00,8.0,3.0,30.14,North,355,6.0,14.0,80,-99.99,,,-99.99,,2013-03-02 12:33:00,
2013-03-02 07:43:00,8.0,3.0,30.14,North,355,6.0,14.0,80,-99.99,,,-99.99,,2013-03-02 12:43:00,
2013-03-02 07:53:00,8.0,3.0,30.14,North,350,6.0,11.0,80,-99.99,,,-99.99,,2013-03-02 12:53:00,
2013-03-02 08:02:00,8.0,3.0,30.14,North,5,6.0,16.0,80,-99.99,,,-99.99,,2013-03-02 13:02:00,
2013-03-02 08:11:00,8.0,3.0,30.14,North,5,6.0,16.0,80,-99.99,,,-99.99,,2013-03-02 13:11:00,
2013-03-02 08:22:00,8.0,3.0,30.14,NNW,340,4.0,11.0,80,-99.99,,,-99.99,,2013-03-02 13:22:00,
2013-03-02 08:32:00,9.0,4.0,30.14,North,0,4.0,9.0,80,-99.99,,,-99.99,,2013-03-02 13:32:00,
2013-03-02 08:42:00,9.0,4.0,30.14,North,0,4.0,9.0,80,-99.99,,,-99.99,,2013-03-02 13:42:00,
2013-03-02 08:52:00,10.0,5.0,30.14,North,0,3.0,9.0,78,-99.99,,,-99.99,,2013-03-02 13:52:00,
2013-03-02 09:01:00,10.0,5.0,30.14,NNW,335,8.0,16.0,78,-99.99,,,-99.99,,2013-03-02 14:01:00,
2013-03-02 09:11:00,10.0,5.0,30.14,NNW,335,8.0,16.0,78,-99.99,,,-99.99,,2013-03-02 14:11:00,
2013-03-02 09:22:00,11.0,6.0,30.13,NW,325,6.0,12.0,77,-99.99,,,-99.99,,2013-03-02 14:22:00,
2013-03-02 09:32:00,11.0,5.0,30.13,North,10,10.0,18.0,76,-99.99,,,-99.99,,2013-03-02 14:32:00,
2013-03-02 09:42:00,11.0,5.0,30.13,North,10,10.0,18.0,76,-99.99,,,-99.99,,2013-03-02 14:42:00,
2013-03-02 09:52:00,12.0,5.0,30.12,North,5,10.0,19.0,75,-99.99,,,-99.99,,2013-03-02 14:52:00,
2013-03-02 10:02:00,13.0,6.0,30.12,North,0,7.0,18.0,74,-99.99,,,-99.99,,2013-03-02 15:02:00,
2013-03-02 10:11:00,13.0,6.0,30.12,North,0,7.0,18.0,74,-99.99,,,-99.99,,2013-03-02 15:11:00,
2013-03-02 10:22:00,13.0,6.0,30.12,North,350,8.0,17.0,72,-99.99,,,-99.99,,2013-03-02 15:22:00,
2013-03-02 10:32:00,14.0,7.0,30.12,NNW,345,4.0,15.0,72,-99.99,,,-99.99,,2013-03-02 15:32:00,
2013-03-02 10:42:00,14.0,7.0,30.12,NNW,345,4.0,15.0,72,-99.99,,,-99.99,,2013-03-02 15:42:00,
2013-03-02 10:52:00,15.0,7.0,30.12,North,350,8.0,19.0,70,-99.99,,,-99.99,,2013-03-02 15:52:00,
2013-03-02 11:02:00,15.0,7.0,30.13,WNW,290,8.0,13.0,69,-99.99,,,-99.99,,2013-03-02 16:02:00,
2013-03-02 11:11:00,15.0,7.0,30.13,WNW,290,8.0,13.0,69,-99.99,,,-99.99,,2013-03-02 16:11:00,
2013-03-02 11:22:00,17.0,7.0,30.12,NW,325,9.0,18.0,66,-99.99,,,-99.99,,2013-03-02 16:22:00,
2013-03-02 11:32:00,18.0,8.0,30.12,NW,315,4.0,16.0,63,-99.99,,,-99.99,,2013-03-02 16:32:00,
2013-03-02 11:42:00,18.0,8.0,30.12,NW,315,4.0,16.0,63,-99.99,,,-99.99,,2013-03-02 16:42:00,
2013-03-02 11:52:00,18.0,8.0,30.12,NW,305,9.0,14.0,62,-99.99,,,-99.99,,2013-03-02 16:52:00,
2013-03-02 12:01:00,20.0,8.0,30.12,NW,315,8.0,16.0,60,-99.99,,,-99.99,,2013-03-02 17:01:00,
2013-03-02 12:12:00,20.0,8.0,30.12,NW,315,8.0,16.0,60,-99.99,,,-99.99,,2013-03-02 17:12:00,
2013-03-02 12:22:00,20.0,8.0,30.12,North,0,6.0,14.0,59,-99.99,,,-99.99,,2013-03-02 17:22:00,
2013-03-02 12:32:00,20.0,8.0,30.12,WNW,300,9.0,14.0,59,-99.99,,,-99.99,,2013-03-02 17:32:00,
2013-03-02 12:42:00,20.0,8.0,30.12,WNW,300,9.0,14.0,59,-99.99,,,-99.99,,2013-03-02 17:42:00,
2013-03-02 12:52:00,22.0,9.0,30.12,WNW,290,6.0,15.0,58,-99.99,,,-99.99,,2013-03-02 17:52:00,
2013-03-02 13:02:00,22.0,10.0,30.12,NNW,335,8.0,11.0,59,-99.99,,,-99.99,,2013-03-02 18:02:00,
2013-03-02 13:12:00,22.0,10.0,30.12,NNW,335,8.0,11.0,59,-99.99,,,-99.99,,2013-03-02 18:12:00,
2013-03-02 13:22:00,24.0,10.0,30.11,NW,310,5.0,14.0,55,-99.99,,,-99.99,,2013-03-02 18:22:00,
2013-03-02 13:32:00,24.0,11.0,30.11,WNW,295,5.0,13.0,58,-99.99,,,-99.99,,2013-03-02 18:32:00,
2013-03-02 13:42:00,24.0,11.0,30.11,WNW,295,5.0,13.0,58,-99.99,,,-99.99,,2013-03-02 18:42:00,
2013-03-02 13:52:00,24.0,11.0,30.09,NNW,340,6.0,17.0,55,-99.99,,,-99.99,,2013-03-02 18:52:00,
2013-03-02 14:02:00,24.0,11.0,30.09,NNW,340,6.0,17.0,55,-99.99,,,-99.99,,2013-03-02 19:02:00,
2013-03-02 14:12:00,24.0,11.0,30.09,NNW,340,6.0,17.0,55,-99.99,,,-99.99,,2013-03-02 19:12:00,
2013-03-02 14:22:00,24.0,11.0,30.09,NNW,335,9.0,15.0,56,-99.99,,,-99.99,,2013-03-02 19:22:00,
2013-03-02 14:32:00,26.0,11.0,30.08,North,0,6.0,15.0,54,-99.99,,,-99.99,,2013-03-02 19:32:00,
2013-03-02 14:42:00,26.0,11.0,30.08,North,0,6.0,15.0,54,-99.99,,,-99.99,,2013-03-02 19:42:00,
2013-03-02 14:52:00,26.0,12.0,30.08,WNW,300,4.0,17.0,56,-99.99,,,-99.99,,2013-03-02 19:52:00,
2013-03-02 15:02:00,27.0,12.0,30.08,NW,310,5.0,14.0,54,-99.99,,,-99.99,,2013-03-02 20:02:00,
2013-03-02 15:11:00,27.0,12.0,30.08,NW,310,5.0,14.0,54,-99.99,,,-99.99,,2013-03-02 20:11:00,
2013-03-02 15:22:00,26.0,12.0,30.07,WNW,295,6.0,14.0,55,-99.99,,,-99.99,,2013-03-02 20:22:00,
2013-03-02 15:32:00,27.0,13.0,30.07,WNW,290,6.0,16.0,54,-99.99,,,-99.99,,2013-03-02 20:32:00,
2013-03-02 15:42:00,27.0,13.0,30.07,WNW,290,6.0,16.0,54,-99.99,,,-99.99,,2013-03-02 20:42:00,
2013-03-02 15:52:00,27.0,12.0,30.06,WNW,300,7.0,14.0,53,-99.99,,,-99.99,,2013-03-02 20:52:00,
2013-03-02 16:02:00,27.0,12.0,30.06,NW,305,10.0,18.0,53,-99.99,,,-99.99,,2013-03-02 21:02:00,
2013-03-02 16:12:00,27.0,12.0,30.06,NW,305,10.0,18.0,53,-99.99,,,-99.99,,2013-03-02 21:12:00,
2013-03-02 16:22:00,27.0,12.0,30.06,NW,315,8.0,15.0,52,-99.99,,,-99.99,,2013-03-02 21:22:00,
2013-03-02 16:32:00,27.0,12.0,30.06,NW,320,10.0,16.0,54,-99.99,,,-99.99,,2013-03-02 21:32:00,
2013-03-02 16:42:00,27.0,12.0,30.06,NW,320,10.0,16.0,54,-99.99,,,-99.99,,2013-03-02 21:42:00,
2013-03-02 16:52:00,26.0,13.0,30.06,WNW,285,9.0,16.0,59,-99.99,,,-99.99,,2013-03-02 21:52:00,
2013-03-02 17:02:00,26.0,13.0,30.06,WNW,285,9.0,16.0,59,-99.99,,,-99.99,,2013-03-02 22:02:00,
2013-03-02 17:12:00,26.0,13.0,30.06,WNW,285,9.0,16.0,59,-99.99,,,-99.99,,2013-03-02 22:12:00,
2013-03-02 17:22:00,24.0,13.0,30.06,NW,305,14.0,21.0,62,-99.99,,,-99.99,,2013-03-02 22:22:00,
2013-03-02 17:32:00,23.0,13.0,30.06,WNW,300,13.0,22.0,66,-99.99,,,-99.99,,2013-03-02 22:32:00,
2013-03-02 17:42:00,23.0,13.0,30.06,WNW,300,13.0,22.0,66,-99.99,,,-99.99,,2013-03-02 22:42:00,
2013-03-02 17:52:00,22.0,13.0,30.07,NW,305,11.0,24.0,69,-99.99,,,-99.99,,2013-03-02 22:52:00,
2013-03-02 18:02:00,22.0,13.0,30.08,NW,305,10.0,17.0,70,-99.99,,,-99.99,,2013-03-02 23:02:00,
2013-03-02 18:11:00,22.0,13.0,30.08,NW,305,10.0,17.0,70,-99.99,,,-99.99,,2013-03-02 23:11:00,
2013-03-02 18:22:00,21.0,13.0,30.07,WNW,295,9.0,20.0,71,-99.99,,,-99.99,,2013-03-02 23:22:00,
2013-03-02 18:32:00,21.0,13.0,30.08,NW,305,14.0,26.0,71,-99.99,,,-99.99,,2013-03-02 23:32:00,
2013-03-02 18:42:00,21.0,13.0,30.08,NW,305,14.0,26.0,71,-99.99,,,-99.99,,2013-03-02 23:42:00,
2013-03-02 18:52:00,21.0,13.0,30.08,WNW,300,6.0,18.0,71,-99.99,,,-99.99,,2013-03-02 23:52:00,
2013-03-02 19:02:00,20.0,13.0,30.08,NW,305,7.0,16.0,72,-99.99,,,-99.99,,2013-03-03 00:02:00,
2013-03-02 19:11:00,20.0,13.0,30.08,NW,305,7.0,16.0,72,-99.99,,,-99.99,,2013-03-03 00:11:00,
2013-03-02 19:22:00,20.0,12.0,30.08,WNW,300,7.0,11.0,72,-99.99,,,-99.99,,2013-03-03 00:22:00,
2013-03-02 19:32:00,19.0,12.0,30.07,WNW,300,5.0,11.0,73,-99.99,,,-99.99,,2013-03-03 00:32:00,
2013-03-02 19:42:00,19.0,12.0,30.07,WNW,300,5.0,11.0,73,-99.99,,,-99.99,,2013-03-03 00:42:00,
2013-03-02 19:52:00,19.0,12.0,30.08,NW,305,6.0,11.0,72,-99.99,,,-99.99,,2013-03-03 00:52:00,
2013-03-02 20:01:00,19.0,11.0,30.08,WNW,300,6.0,12.0,70,-99.99,,,-99.99,,2013-03-03 01:01:00,
2013-03-02 20:11:00,19.0,11.0,30.08,WNW,300,6.0,12.0,70,-99.99,,,-99.99,,2013-03-03 01:11:00,
2013-03-02 20:21:00,18.0,10.0,30.07,WNW,295,4.0,10.0,70,-99.99,,,-99.99,,2013-03-03 01:21:00,
2013-03-02 20:32:00,18.0,10.0,30.06,NW,305,6.0,11.0,70,-99.99,,,-99.99,,2013-03-03 01:32:00,
2013-03-02 20:42:00,18.0,10.0,30.06,NW,305,6.0,11.0,70,-99.99,,,-99.99,,2013-03-03 01:42:00,
2013-03-02 20:52:00,17.0,9.0,30.06,NW,320,6.0,11.0,69,-99.99,,,-99.99,,2013-03-03 01:52:00,
2013-03-02 21:01:00,17.0,8.0,30.05,NW,310,6.0,14.0,68,-99.99,,,-99.99,,2013-03-03 02:01:00,
2013-03-02 21:11:00,17.0,8.0,30.05,NW,310,6.0,14.0,68,-99.99,,,-99.99,,2013-03-03 02:11:00,
2013-03-02 21:22:00,17.0,8.0,30.05,NW,315,6.0,13.0,69,-99.99,,,-99.99,,2013-03-03 02:22:00,
2013-03-02 21:32:00,16.0,8.0,30.05,NW,320,6.0,11.0,69,-99.99,,,-99.99,,2013-03-03 02:32:00,
2013-03-02 21:42:00,16.0,8.0,30.05,NW,320,6.0,11.0,69,-99.99,,,-99.99,,2013-03-03 02:42:00,
2013-03-02 21:52:00,16.0,8.0,30.05,NW,315,7.0,12.0,70,-99.99,,,-99.99,,2013-03-03 02:52:00,
2013-03-02 22:02:00,16.0,8.0,30.04,NW,310,7.0,14.0,70,-99.99,,,-99.99,,2013-03-03 03:02:00,
2013-03-02 22:11:00,16.0,8.0,30.04,NW,310,7.0,14.0,70,-99.99,,,-99.99,,2013-03-03 03:11:00,
2013-03-02 22:22:00,16.0,8.0,30.03,NW,305,9.0,14.0,69,-99.99,,,-99.99,,2013-03-03 03:22:00,
2013-03-02 22:32:00,16.0,8.0,30.03,NW,315,7.0,16.0,69,-99.99,,,-99.99,,2013-03-03 03:32:00,
2013-03-02 22:42:00,16.0,8.0,30.03,NW,315,7.0,16.0,69,-99.99,,,-99.99,,2013-03-03 03:42:00,
2013-03-02 22:52:00,16.0,8.0,30.02,NNW,335,7.0,15.0,69,-99.99,,,-99.99,,2013-03-03 03:52:00,
2013-03-02 23:01:00,15.0,7.0,30.02,NNW,340,6.0,16.0,70,-99.99,,,-99.99,,2013-03-03 04:01:00,
2013-03-02 23:11:00,15.0,7.0,30.02,NNW,340,6.0,16.0,70,-99.99,,,-99.99,,2013-03-03 04:11:00,
2013-03-02 23:21:00,15.0,7.0,30.02,NW,325,6.0,14.0,71,-99.99,,,-99.99,,2013-03-03 04:21:00,
2013-03-02 23:32:00,15.0,7.0,30.02,North,0,6.0,13.0,72,-99.99,,,-99.99,,2013-03-03 04:32:00,
2013-03-02 23:42:00,15.0,7.0,30.02,North,0,6.0,13.0,72,-99.99,,,-99.99,,2013-03-03 04:42:00,
2013-03-02 23:52:00,14.0,7.0,30.03,NNW,340,7.0,14.0,73,-99.99,,,-99.99,,2013-03-03 04:52:00,